This is the latest recevied weather packets stored in our database for station/object XE1GMR. If no packets are shown the sender has not sent any weather packets the latest 1 day(s).
| Time | Temp. | Humidity | Pressure | Rain* | Wind** | Luminosity | Snow |
|---|---|---|---|---|---|---|---|
| 1778044543 | 20° C | 60% | 1122.5 hPa | 0 mm | 0.45 m/s, 314° | 0 W/m² | - |
| 1778044240 | 20.56° C | 60% | 1122.6 hPa | 0 mm | 0.45 m/s, 283° | 0 W/m² | - |
| 1778043938 | 20.56° C | 59% | 1122.6 hPa | 0 mm | 0.45 m/s, 284° | 0 W/m² | - |
| 1778043636 | 20.56° C | 58% | 1122.4 hPa | 0 mm | 0.45 m/s, 294° | 0 W/m² | - |
| 1778043332 | 20.56° C | 58% | 1122.7 hPa | 0 mm | 0.89 m/s, 337° | 0 W/m² | - |
| 1778043029 | 20.56° C | 57% | 1122.4 hPa | 0 mm | 0.45 m/s, 260° | 0 W/m² | - |
| 1778042727 | 20.56° C | 56% | 1122.6 hPa | 0 mm | 0.45 m/s, 272° | 0 W/m² | - |
| 1778042423 | 21.11° C | 57% | 1122.5 hPa | 0 mm | 0.45 m/s, 277° | 0 W/m² | - |
| 1778042120 | 21.11° C | 57% | 1122.6 hPa | 0 mm | 0.45 m/s, 270° | 0 W/m² | - |
| 1778041819 | 21.11° C | 57% | 1122.4 hPa | 0 mm | 0.45 m/s, 279° | 0 W/m² | - |
| 1778041518 | 21.11° C | 57% | 1122.4 hPa | 0 mm | 0 m/s | 0 W/m² | - |
| 1778041215 | 21.11° C | 56% | 1122.2 hPa | 0 mm | 0.89 m/s, 295° | 0 W/m² | - |
| 1778040914 | 21.67° C | 55% | 1122.2 hPa | 0 mm | 0.45 m/s, 261° | 0 W/m² | - |
| 1778040610 | 21.67° C | 54% | 1122.2 hPa | 0 mm | 0.89 m/s, 310° | 0 W/m² | - |
| 1778040308 | 21.67° C | 52% | 1122.2 hPa | 0 mm | 0.45 m/s, 332° | 0 W/m² | - |
| 1778040003 | 22.22° C | 51% | 1122.2 hPa | 0 mm | 1.34 m/s, 283° | 0 W/m² | - |
| 1778039701 | 22.78° C | 49% | 1122 hPa | 0 mm | 0.45 m/s, 259° | 0 W/m² | - |
| 1778039397 | 23.33° C | 48% | 1122 hPa | 0 mm | 0.45 m/s, 266° | 0 W/m² | - |
| 1778039095 | 23.89° C | 47% | 1121.8 hPa | 0 mm | 0.45 m/s, 264° | 0 W/m² | - |
| 1778038791 | 23.89° C | 45% | 1121.8 hPa | 0 mm | 0.45 m/s, 261° | 0 W/m² | - |
| 1778038489 | 23.89° C | 46% | 1121.6 hPa | 0 mm | 0 m/s | 0 W/m² | - |
| 1778038185 | 23.89° C | 46% | 1121.7 hPa | 0 mm | 0 m/s | 0 W/m² | - |
| 1778037883 | 23.89° C | 46% | 1121.3 hPa | 0 mm | 0 m/s | 0 W/m² | - |
| 1778037579 | 23.89° C | 45% | 1121.6 hPa | 0 mm | 0 m/s | 0 W/m² | - |
| 1778037277 | 23.89° C | 46% | 1121.2 hPa | 0 mm | 0.45 m/s, 256° | 0 W/m² | - |
* Rain latest hour (hover to see other rain measurements)
** Current wind speed in m/s (hover to see current wind gust speed)